| time (UTC) | temp F | wind direction | speed MPH | gust MPH | rain 1hr in | rain 24hr in | rain mn in | humidity % | barometer mb |
| 20260903164422 | 55 | 53 | 0.0 | 0.0 | 0.00 | 0.00 | 0.00 | 79 | |
| 20260903163421 | 56 | 53 | 0.0 | 0.0 | 0.00 | 0.00 | 0.00 | 77 | |
| 20260903162421 | 56 | 53 | 0.0 | 0.0 | 0.00 | 0.00 | 0.00 | 75 | |
| 20260903161420 | 56 | 59 | 0.0 | 6.0 | 0.00 | 0.00 | 0.00 | 68 | |
| 20260903160420 | 57 | 54 | 0.0 | 0.0 | 0.00 | 0.00 | 0.00 | 70 | |
| 20260903155419 | 58 | 54 | 4.0 | 6.0 | 0.00 | 0.00 | 0.00 | 69 | |
| 20260903154419 | 59 | 77 | 0.0 | 0.0 | 0.00 | 0.00 | 0.00 | 68 | |
| 20260903153418 | 59 | 77 | 0.0 | 0.0 | 0.00 | 0.00 | 0.00 | 66 | |
| 20260903152417 | 60 | 67 | 2.0 | 2.0 | 0.00 | 0.00 | 0.00 | 64 | |
| 20260903151417 | 60 | 64 | 0.0 | 0.0 | 0.00 | 0.00 | 0.00 | 63 | |
| 20260903150416 | 59 | 64 | 0.0 | 0.0 | 0.00 | 0.00 | 0.00 | 66 | |
| 20260903145416 | 59 | 64 | 0.0 | 0.0 | 0.00 | 0.00 | 0.00 | 68 | |
| 20260903144415 | 58 | 64 | 0.0 | 8.0 | 0.00 | 0.00 | 0.00 | 66 | |
| 20260903143414 | 59 | 57 | 0.0 | 14.0 | 0.00 | 0.00 | 0.00 | 62 | |
| 20260903142510 | 59 | 59 | 2.0 | 9.0 | 0.00 | 0.00 | 0.00 | 59 | |
| 20260903142414 | 59 | 59 | 2.0 | 9.0 | 0.00 | 0.00 | 0.00 | 59 | |
| 20260903141413 | 63 | 47 | 0.0 | 4.0 | 0.00 | 0.00 | 0.00 | 59 | |
| 20260903140413 | 65 | 102 | 0.0 | 0.0 | 0.00 | 0.00 | 0.00 | 55 | |
| 20260903135412 | 65 | 102 | 0.0 | 0.0 | 0.00 | 0.00 | 0.00 | 51 | |
| 20260903134411 | 67 | 47 | 2.0 | 2.0 | 0.00 | 0.00 | 0.00 | 100 | |
| 20260903133411 | 65 | 63 | 0.0 | 0.0 | 0.00 | 0.00 | 0.00 | 56 | |
| 20260903132410 | 62 | 63 | 0.0 | 0.0 | 0.00 | 0.00 | 0.00 | 58 | |
| 20260903131410 | 63 | 63 | 0.0 | 0.0 | 0.00 | 0.00 | 0.00 | 61 | |
| 20260903130413 | 63 | 63 | 0.0 | 0.0 | 0.00 | 0.00 | 0.00 | 60 | |
| 20260903125410 | 64 | 63 | 0.0 | 0.0 | 0.00 | 0.00 | 0.00 | 59 | |
| 20260903124410 | 64 | 63 | 0.0 | 0.0 | 0.00 | 0.00 | 0.00 | 57 | |
| 20260903123411 | 66 | 63 | 0.0 | 0.0 | 0.00 | 0.00 | 0.00 | 54 | |
| 20260903122407 | 67 | 63 | 0.0 | 0.0 | 0.00 | 0.00 | 0.00 | 51 | |
| 20260903121406 | 65 | 50 | 0.0 | 6.0 | 0.00 | 0.00 | 0.00 | 54 | |
| 20260903120406 | 63 | 57 | 0.0 | 9.0 | 0.00 | 0.00 | 0.00 | 100 | |
| 20260903115405 | 61 | 56 | 0.0 | 11.0 | 0.00 | 0.00 | 0.00 | 57 | |
| 20260903114405 | 62 | 56 | 7.0 | 11.0 | 0.00 | 0.00 | 0.00 | 48 | |
| 20260903113404 | 62 | 59 | 6.0 | 12.0 | 0.00 | 0.00 | 0.00 | 49 | |
| 20260903112403 | 59 | 61 | 3.0 | 11.0 | 0.00 | 0.00 | 0.00 | 54 | |
| 20260903111403 | 60 | 56 | 3.0 | 10.0 | 0.00 | 0.00 | 0.00 | 52 | |
| 20260903110441 | 60 | 49 | 1.0 | 7.0 | 0.00 | 0.00 | 0.00 | 52 | |
| 20260903110402 | 60 | 49 | 1.0 | 7.0 | 0.00 | 0.00 | 0.00 | 52 | |
| 20260903105402 | 59 | 63 | 1.0 | 14.0 | 0.00 | 0.00 | 0.00 | 55 | |
| 20260903104401 | 59 | 52 | 0.0 | 10.0 | 0.00 | 0.00 | 0.00 | 56 | |
| 20260903103401 | 61 | 57 | 3.0 | 7.0 | 0.00 | 0.00 | 0.00 | 54 | |
| 20260903102400 | 62 | 49 | 0.0 | 10.0 | 0.00 | 0.00 | 0.00 | 52 | |
| 20260903101359 | 61 | 56 | 0.0 | 5.0 | 0.00 | 0.00 | 0.00 | 52 | |
| 20260903100359 | 61 | 40 | 0.0 | 16.0 | 0.00 | 0.00 | 0.00 | 55 | |
| 20260903095358 | 62 | 54 | 4.0 | 17.0 | 0.00 | 0.00 | 0.00 | 48 | |
| 20260903094359 | 64 | 60 | 0.0 | 6.0 | 0.00 | 0.00 | 0.00 | 49 | |
| 20260903093357 | 61 | 52 | 3.0 | 8.0 | 0.00 | 0.00 | 0.00 | 56 | |
| 20260903092357 | 59 | 54 | 0.0 | 8.0 | 0.00 | 0.00 | 0.00 | 53 | |
| 20260903091356 | 57 | 88 | 3.0 | 11.0 | 0.00 | 0.00 | 0.00 | 100 | |
| 20260903090355 | 56 | 60 | 8.0 | 17.0 | 0.00 | 0.00 | 0.00 | 61 | |
| 20260903085355 | 56 | 57 | 0.0 | 18.0 | 0.00 | 0.00 | 0.00 | 62 | |
| 20260903084354 | 56 | 50 | 0.0 | 8.0 | 0.00 | 0.00 | 0.00 | 60 | |
| 20260903083353 | 58 | 63 | 8.0 | 12.0 | 0.00 | 0.00 | 0.00 | 59 | |
| 20260903082353 | 58 | 59 | 1.0 | 12.0 | 0.00 | 0.00 | 0.00 | 59 | |
| 20260903081352 | 59 | 60 | 3.0 | 9.0 | 0.00 | 0.00 | 0.00 | 56 | |
| 20260903080352 | 59 | 64 | 0.0 | 11.0 | 0.00 | 0.00 | 0.00 | 56 | |
| 20260903075351 | 58 | 54 | 2.0 | 19.0 | 0.00 | 0.00 | 0.00 | 57 | |
| 20260903074350 | 58 | 54 | 10.0 | 18.0 | 0.00 | 0.00 | 0.00 | 57 | |
| 20260903073350 | 58 | 53 | 3.0 | 19.0 | 0.00 | 0.00 | 0.00 | 55 | |
| 20260903072349 | 57 | 63 | 3.0 | 12.0 | 0.00 | 0.00 | 0.00 | 57 | |
| 20260903070358 | 54 | 49 | 0.0 | 13.0 | 0.00 | 0.00 | 0.00 | 62 | |
| 20260903065358 | 53 | 63 | 11.0 | 16.0 | 0.00 | 0.00 | 0.00 | 65 | |
| 20260903064357 | 52 | 43 | 7.0 | 18.0 | 0.00 | 0.00 | 0.00 | 67 | |
| 20260903063357 | 52 | 60 | 6.0 | 14.0 | 0.00 | 0.00 | 0.00 | 68 | |
| 20260903062356 | 52 | 15 | 0.0 | 15.0 | 0.00 | 0.00 | 0.00 | 68 | |
| 20260903061356 | 52 | 57 | 6.0 | 14.0 | 0.00 | 0.00 | 0.00 | 71 | |
| 20260903060355 | 51 | 49 | 0.0 | 13.0 | 0.00 | 0.00 | 0.00 | 72 | |
| 20260903055354 | 51 | 61 | 3.0 | 9.0 | 0.00 | 0.00 | 0.00 | 75 | |
| 20260903054354 | 50 | 54 | 6.0 | 12.0 | 0.00 | 0.00 | 0.00 | 77 | |
| 20260903053353 | 50 | 70 | 6.0 | 16.0 | 0.00 | 0.00 | 0.00 | 77 | |
| 20260902174621 | 51 | 52 | 3.0 | 5.0 | 0.00 | 0.00 | 0.00 | 94 | |
| 20260902173620 | 51 | 56 | 5.0 | 5.0 | 0.00 | 0.00 | 0.00 | 93 | |
| 20260902173226 | 51 | 57 | 3.0 | 4.0 | 0.00 | 0.00 | 0.00 | 93 | |
| 20260902172620 | 51 | 57 | 3.0 | 4.0 | 0.00 | 0.00 | 0.00 | 93 | |
| 20260902171619 | 51 | 45 | 0.0 | 5.0 | 0.00 | 0.00 | 0.00 | 93 | |
| 20260902170619 | 52 | 88 | 0.0 | 1.0 | 0.00 | 0.00 | 0.00 | 92 |